DW5608 Weather Reports


Display with metric or nautical units.
time (UTC)temp
F
wind
direction
speed
MPH
gust
MPH
rain 1hr
in
rain 24hr
in
rain mn
in
humidity
%
barometer
mb
20181120212317 33 331 0.0 3.0 0.00 0.84 0.70 92 1009.5
20181120211315 33 0 1.0 3.0 0.00 0.84 0.70 92 1009.5
20181120210313 33 0 1.0 1.0 0.00 0.86 0.70 92 1009.5
20181120205311 33 28 1.0 1.0 0.00 0.86 0.70 92 1009.5
20181120204309 33 315 0.0 0.0 0.00 0.89 0.70 92 1009.5
20181120203308 33 299 0.0 0.0 0.00 0.89 0.70 92 1009.5
20181120202306 33 338 0.0 2.0 0.00 0.91 0.70 92 1009.1
20181120201304 33 270 0.0 2.0 0.00 0.91 0.70 92 1009.1
20181120200302 33 355 1.0 2.0 0.00 0.94 0.70 92 1009.1
20181120195301 33 25 1.0 3.0 0.00 0.94 0.70 92 1009.1
20181120194259 33 14 1.0 3.0 0.00 0.96 0.70 92 1009.1
20181120193258 33 2 1.0 4.0 0.00 0.96 0.70 92 1009.1
20181120192256 33 338 1.0 1.0 0.00 0.96 0.70 92 1008.8
20181120191255 33 0 1.0 5.0 0.00 0.96 0.70 92 1008.8
20181120190254 33 158 0.0 3.0 0.00 0.98 0.70 92 1008.8
20181120185253 33 101 0.0 3.0 0.00 0.98 0.70 92 1008.8
20181120184252 33 359 1.0 5.0 0.00 0.98 0.70 92 1008.8
20181120183251 32 0 1.0 3.0 0.00 0.98 0.70 92 1008.8
20181120182249 32 5 1.0 3.0 0.00 0.98 0.70 92 1008.8
20181120181248 32 356 1.0 2.0 0.00 0.98 0.70 92 1008.8
20181120180246 32 184 1.0 2.0 0.00 1.01 0.70 91 1008.8
20181120175245 33 12 1.0 3.0 0.00 1.01 0.70 91 1008.8
20181120174243 33 6 1.0 2.0 0.00 1.01 0.70 91 1008.8
20181120173242 33 8 1.0 2.0 0.00 1.01 0.70 91 1008.8
20181120172241 33 35 1.0 3.0 0.00 1.01 0.70 91 1008.5
20181120171239 33 9 1.0 2.0 0.00 1.01 0.70 91 1008.5
20181120170237 33 23 0.0 1.0 0.00 1.01 0.70 91 1008.5
20181120165235 33 47 0.0 3.0 0.00 1.01 0.70 91 1008.1
20181120164233 33 338 0.0 1.0 0.00 1.01 0.70 91 1008.1
20181120163231 33 135 0.0 1.0 0.00 1.01 0.70 91 1008.1
20181120162230 33 0 0.0 2.0 0.00 1.01 0.70 91 1007.8
20181120161229 33 0 0.0 1.0 0.00 1.01 0.70 91 1007.5
20181120160227 33 23 0.0 0.0 0.00 1.01 0.70 91 1007.8
20181120155225 33 0 0.0 0.0 0.00 1.01 0.70 91 1007.5
20181120154222 33 64 0.0 2.0 0.00 1.01 0.70 91 1007.5
20181120153221 33 11 2.0 3.0 0.00 1.01 0.70 91 1007.5
20181120152218 33 4 2.0 4.0 0.00 1.01 0.70 91 1007.5
20181120151216 33 294 0.0 4.0 0.00 1.01 0.70 91 1007.5
20181120150215 33 357 1.0 3.0 0.00 1.01 0.70 91 1007.5
20181120145213 33 5 2.0 4.0 0.00 1.01 0.70 91 1007.5
20181120144212 33 24 1.0 3.0 0.00 1.01 0.70 91 1007.5
20181120143211 33 0 0.0 3.0 0.00 1.01 0.70 91 1007.5
20181120142209 33 32 1.0 3.0 0.00 1.01 0.70 91 1007.5
20181120141207 33 9 1.0 5.0 0.00 1.01 0.70 91 1007.5
20181120140205 33 345 1.0 5.0 0.00 1.01 0.70 91 1007.5
20181120135205 33 105 1.0 4.0 0.00 1.01 0.70 91 1007.5
20181120134203 33 23 2.0 6.0 0.00 1.01 0.70 91 1007.5
20181120133201 33 13 2.0 6.0 0.00 1.01 0.70 91 1007.5
20181120132159 33 5 3.0 5.0 0.00 1.01 0.70 91 1007.5
20181120131158 33 33 1.0 4.0 0.00 1.01 0.70 91 1007.5
20181120130156 33 34 1.0 5.0 0.00 1.01 0.70 91 1007.5
20181120125155 33 24 1.0 4.0 0.00 1.01 0.70 91 1007.5
20181120124154 33 3 1.0 5.0 0.00 1.01 0.70 91 1007.5
20181120123152 33 10 2.0 5.0 0.00 1.01 0.70 91 1007.5
20181120122149 33 7 2.0 7.0 0.00 1.01 0.70 91 1007.8
20181120121147 33 45 2.0 4.0 0.00 1.01 0.70 91 1007.8
20181120120146 33 38 2.0 4.0 0.00 1.01 0.70 91 1007.8
20181120115144 33 17 1.0 2.0 0.00 1.01 0.70 91 1007.8
20181120114143 33 185 1.0 2.0 0.00 1.01 0.70 91 1007.8
20181120113142 32 5 1.0 4.0 0.00 1.01 0.70 91 1007.8
20181120112140 32 30 1.0 3.0 0.02 1.01 0.70 91 1007.8
20181120111138 32 293 0.0 3.0 0.02 1.01 0.70 91 1007.8
20181120110136 32 14 1.0 7.0 0.02 1.01 0.70 91 1007.8
20181120105134 32 1 2.0 5.0 0.05 1.01 0.70 92 1007.8
20181120104132 32 352 2.0 3.0 0.07 1.01 0.70 92 1007.8
20181120103130 32 359 1.0 3.0 0.07 1.01 0.70 92 1007.8
20181120102127 32 335 1.0 5.0 0.05 0.98 0.67 91 1007.8
20181120101125 32 1 1.0 3.0 0.07 0.98 0.67 91 1007.8
20181120100124 32 12 2.0 6.0 0.10 0.98 0.67 91 1008.1
20181120095123 32 349 1.0 5.0 0.10 0.96 0.65 91 1008.1
20181120094121 32 343 2.0 5.0 0.10 0.94 0.62 91 1008.1
20181120093119 32 340 2.0 7.0 0.10 0.94 0.62 91 1008.1
20181120092117 32 14 2.0 6.0 0.12 0.94 0.62 91 1007.8
20181120091115 32 7 2.0 7.0 0.10 0.91 0.60 91 1007.8
20181120090114 31 349 2.0 5.0 0.10 0.89 0.58 91 1007.8
20181120085113 31 330 0.0 3.0 0.10 0.86 0.55 91 1007.8
20181120084111 31 190 1.0 5.0 0.10 0.84 0.53 91 1007.8
20181120083110 31 2 2.0 8.0 0.10 0.84 0.53 91 1007.8
20181120082108 31 23 2.0 3.0 0.10 0.82 0.50 91 1007.8
20181120081106 31 24 2.0 4.0 0.10 0.82 0.50 91 1007.8
20181120080105 31 48 1.0 7.0 0.10 0.79 0.48 91 1007.8
20181120075104 31 29 1.0 10.0 0.07 0.77 0.46 91 1007.5
20181120074103 31 315 0.0 1.0 0.10 0.74 0.43 92 1007.8
20181120073100 31 25 2.0 7.0 0.10 0.74 0.43 92 1007.8
20181120072059 31 19 1.0 8.0 0.07 0.72 0.41 92 1007.8
20181120071057 31 21 2.0 4.0 0.07 0.72 0.41 92 1007.5
20181120070055 31 35 2.0 4.0 0.07 0.70 0.38 92 1007.5
20181120065054 31 0 1.0 7.0 0.07 0.70 0.38 92 1007.1
20181120064052 31 23 0.0 0.0 0.05 0.65 0.34 92 1007.1
20181120063051 31 23 0.0 0.0 0.05 0.65 0.34 92 1006.8
20181120062050 31 23 0.0 2.0 0.05 0.65 0.34 92 1006.8
20181120061049 31 35 0.0 4.0 0.07 0.65 0.34 92 1006.8
20181120060048 31 339 0.0 4.0 0.05 0.62 0.31 92 1006.4
20181120055046 31 45 0.0 2.0 0.10 0.62 0.31 92 1006.4
20181120054045 31 74 0.0 3.0 0.07 0.60 0.29 92 1006.4
20181120053043 31 140 1.0 5.0 0.07 0.60 0.29 92 1006.8
20181120052042 31 180 1.0 4.0 0.12 0.60 0.29 92 1006.4
20181120051041 31 180 1.0 1.0 0.10 0.58 0.26 91 1006.4
20181120050040 31 23 0.0 0.0 0.10 0.58 0.26 91 1006.8
20181120045039 31 23 0.0 5.0 0.05 0.53 0.22 91 1006.4
20181120044038 31 9 3.0 5.0 0.05 0.53 0.22 91 1006.4
20181120043037 31 23 1.0 3.0 0.05 0.53 0.22 91 1006.8
20181120042035 31 11 1.0 6.0 0.00 0.48 0.17 91 1006.8
20181120041033 31 26 1.0 5.0 0.00 0.48 0.17 91 1006.8
20181120040032 31 21 2.0 6.0 0.00 0.48 0.17 91 1006.8
20181120035030 31 4 1.0 4.0 0.05 0.48 0.17 92 1006.8
20181120034030 31 350 1.0 3.0 0.05 0.48 0.17 92 1006.8
20181120033028 31 156 1.0 3.0 0.05 0.48 0.17 92 1006.8
20181120032028 31 336 1.0 3.0 0.05 0.48 0.17 92 1006.8
20181120031026 31 38 1.0 3.0 0.05 0.48 0.17 92 1006.8
20181120030025 31 40 1.0 2.0 0.10 0.48 0.17 92 1006.8
20181120025024 31 16 2.0 3.0 0.05 0.43 0.12 92 1006.8
20181120024023 31 34 1.0 4.0 0.05 0.43 0.12 92 1006.8
20181120023021 31 16 1.0 5.0 0.05 0.43 0.12 92 1006.8
20181120022020 31 302 1.0 2.0 0.05 0.43 0.12 92 1007.1
20181120021018 31 244 1.0 4.0 0.05 0.43 0.12 92 1007.5
20181120020017 31 33 1.0 3.0 0.02 0.38 0.07 92 1007.5
20181120015016 31 206 0.0 2.0 0.02 0.38 0.07 92 1007.8
20181120014015 31 188 1.0 2.0 0.02 0.38 0.07 92 1007.8
20181120013013 31 181 1.0 4.0 0.02 0.38 0.07 92 1007.8
20181120012011 31 19 1.0 7.0 0.02 0.38 0.07 92 1007.8
20181120011010 31 57 0.0 5.0 0.02 0.38 0.07 92 1007.8
20181120010007 31 340 1.0 5.0 0.02 0.36 0.05 91 1007.8
20181120005005 31 154 1.0 3.0 0.02 0.36 0.05 91 1007.8
20181120004003 31 43 1.0 5.0 0.02 0.36 0.05 91 1008.1
20181120003001 31 8 2.0 5.0 0.05 0.36 0.05 91 1008.1
20181120002000 31 116 1.0 3.0 0.05 0.36 0.05 91 1008.5
20181120000958 31 18 1.0 5.0 0.05 0.36 0.05 91 1008.5
20181119235957 31 351 1.0 4.0 0.02 0.34 0.02 91 1008.5
20181119234956 31 1 1.0 4.0 0.07 0.34 0.02 91 1008.8
20181119233954 31 22 1.0 5.0 0.07 0.34 0.02 91 1008.8
20181119232953 31 2 2.0 3.0 0.05 0.31 0.00 91 1008.8
20181119231952 31 23 1.0 6.0 0.05 0.31 0.00 91 1008.8
20181119230950 31 338 2.0 5.0 0.10 0.31 0.00 91 1009.1
20181119225948 31 338 2.0 4.0 0.10 0.31 0.31 91 1009.1
20181119224947 31 13 2.0 5.0 0.07 0.26 0.26 91 1009.1
20181119223946 31 33 2.0 5.0 0.07 0.26 0.26 91 1009.5
20181119222944 31 12 3.0 5.0 0.10 0.26 0.26 91 1009.5
20181119221943 31 25 0.0 4.0 0.10 0.26 0.26 91 1009.5
20181119220941 31 47 1.0 5.0 0.07 0.22 0.22 91 1009.5
20181119215939 31 21 2.0 4.0 0.07 0.22 0.22 91 1009.8
20181119214938 31 32 1.0 6.0 0.05 0.19 0.19 91 1009.8
20181119213936 31 26 2.0 6.0 0.07 0.19 0.19 91 1009.8
20181119212934 31 15 3.0 6.0 0.05 0.17 0.17 90 1009.8